Weather History for Holyoke AP, Holyoke, CO, CO

Change the Weather History Date:

Wednesday, February 12, 2014

  Actual Average Record
Temperature  
Mean Temperature 32 °F -  
Max Temperature 46 °F 47 °F 46 °F (2014)
Min Temperature 17 °F 18 °F 17 °F (2014)
Degree Days  
Heating Degree Days 34    
Moisture  
Dew Point 25 °F    
Average Humidity 72    
Maximum Humidity 86    
Minimum Humidity 53    
Precipitation  
Precipitation 0.00 in - - ()
Sea Level Pressure  
Sea Level Pressure 29.95 in    
Wind  
Wind Speed 14 mph (WSW)    
Max Wind Speed 24 mph    
Max Gust Speed 33 mph    
Visibility 10 miles    
Events      
Averages and records for this station are not official NWS values.
T = Trace of Precipitation, MM = Missing Value Source: NWS Daily Summary

Daily Weather History Graph

Daily Weather History Graph

Search for Another Location

Airport:

Trip Planner

Search our weather history database for the weather conditions in past years. The results will help you decide how hot, cold, wet, or windy it might be!

Date:

Astronomy

Feb. 12, 2014 Rise Set
Actual Time 6:46 AM MST 5:20 PM MST
Civil Twilight 6:18 AM MST 5:48 PM MST
Nautical Twilight 5:46 AM MST 6:20 PM MST
Astronomical Twilight 5:14 AM MST 6:52 PM MST
Moon 3:36 PM MST (2/12) 5:04 AM MST (2/12)
Length of Visible Light 11h 30m
Length of Day
10h 34m
Waxing Gibbous, 96% of the Moon is Illuminated
Feb 12
Waxing Gibbous
Feb 14
Full
Feb 22
Last Quarter
Mar 1
New
Mar 8
First Quarter

Hourly Weather History & Observations

Time (MST) Temp. Windchill Dew Point Humidity Pressure Visibility Wind Dir Wind Speed Gust Speed Precip Events Conditions
12:15 AM 37.4 °F 26.4 °F 30.2 °F 75% 30.02 in 10.0 mi NW 23.0 mph 33.4 mph N/A   Overcast
12:35 AM 35.6 °F 23.7 °F 28.4 °F 75% 30.03 in 10.0 mi NNW 24.2 mph 31.1 mph N/A   Overcast
12:55 AM 35.6 °F 25.5 °F 28.4 °F 75% 30.04 in 10.0 mi NW 17.3 mph 27.6 mph N/A   Overcast
1:15 AM 33.8 °F 23.5 °F 28.4 °F 81% 30.05 in 10.0 mi NW 16.1 mph 23.0 mph N/A   Mostly Cloudy
1:35 AM 33.8 °F 24.3 °F 26.6 °F 75% 30.06 in 10.0 mi NW 13.8 mph 21.9 mph N/A   Scattered Clouds
1:55 AM 33.8 °F 22.5 °F 26.6 °F 75% 30.08 in 10.0 mi NNW 19.6 mph 26.5 mph N/A   Clear
2:15 AM 33.8 °F 22.2 °F 26.6 °F 75% 30.08 in 10.0 mi NNW 20.7 mph 26.5 mph N/A   Clear
2:35 AM 33.8 °F 22.5 °F 26.6 °F 75% 30.09 in 10.0 mi NNW 19.6 mph - N/A   Clear
2:55 AM 32.0 °F 19.8 °F 24.8 °F 75% 30.09 in 10.0 mi NNW 20.7 mph 26.5 mph N/A   Clear
3:15 AM 32.0 °F 20.8 °F 24.8 °F 75% 30.09 in 10.0 mi NNW 17.3 mph - N/A   Clear
3:35 AM 32.0 °F 21.6 °F 24.8 °F 75% 30.10 in 10.0 mi NNW 15.0 mph - N/A   Clear
3:55 AM 32.0 °F 23.6 °F 24.8 °F 75% 30.12 in 10.0 mi NW 10.4 mph - N/A   Scattered Clouds
4:15 AM 30.2 °F 21.9 °F 23.0 °F 75% 30.12 in 10.0 mi NNW 9.2 mph - N/A   Overcast
4:35 AM 28.4 °F 18.0 °F 21.2 °F 74% 30.12 in 10.0 mi NNW 12.7 mph - N/A   Scattered Clouds
4:55 AM 26.6 °F 16.2 °F 21.2 °F 80% 30.11 in 10.0 mi NNW 11.5 mph - N/A   Clear
5:15 AM 26.6 °F 17.5 °F 21.2 °F 80% 30.12 in 10.0 mi NNW 9.2 mph - N/A   Clear
5:35 AM 26.6 °F 19.1 °F 21.2 °F 80% 30.13 in 10.0 mi NW 6.9 mph - N/A   Clear
5:55 AM 26.6 °F 20.0 °F 19.4 °F 74% 30.12 in 10.0 mi West 5.8 mph - N/A   Clear
6:15 AM 24.8 °F 17.9 °F 19.4 °F 80% 30.12 in 10.0 mi WNW 5.8 mph - N/A   Clear
6:35 AM 21.2 °F 13.6 °F 15.8 °F 80% 30.11 in 10.0 mi West 5.8 mph - N/A   Clear
6:55 AM 17.6 °F 6.4 °F 12.2 °F 79% 30.10 in 10.0 mi West 9.2 mph - N/A   Clear
7:15 AM 19.4 °F 14.3 °F 15.8 °F 86% 30.11 in 10.0 mi NNW 3.5 mph - N/A   Clear
7:35 AM 19.4 °F 9.5 °F 14.0 °F 80% 30.11 in 10.0 mi West 8.1 mph - N/A   Clear
7:55 AM 21.2 °F 11.7 °F 17.6 °F 86% 30.11 in 10.0 mi WNW 8.1 mph - N/A   Clear
8:15 AM 24.8 °F - 17.6 °F 74% 30.09 in 10.0 mi Calm Calm - N/A   Clear
8:35 AM 28.4 °F - 19.4 °F 69% 30.09 in 10.0 mi Calm Calm - N/A   Clear
8:55 AM 26.6 °F 20.0 °F 17.6 °F 69% 30.09 in 10.0 mi WSW 5.8 mph - N/A   Clear
9:15 AM 26.6 °F 20.0 °F 19.4 °F 74% 30.10 in 10.0 mi WSW 5.8 mph - N/A   Clear
9:35 AM 30.2 °F 22.6 °F 21.2 °F 69% 30.09 in 10.0 mi SW 8.1 mph - N/A   Clear
9:55 AM 32.0 °F 24.8 °F 21.2 °F 64% 30.08 in 10.0 mi WSW 8.1 mph - N/A   Clear
10:15 AM 33.8 °F 27.0 °F 23.0 °F 65% 30.09 in 10.0 mi WSW 8.1 mph - N/A   Clear
10:35 AM 33.8 °F 26.4 °F 23.0 °F 65% 30.07 in 10.0 mi WSW 9.2 mph - N/A   Clear
10:55 AM 35.6 °F 28.6 °F 24.8 °F 65% 30.06 in 10.0 mi SW 9.2 mph - N/A   Clear
11:15 AM 37.4 °F 29.8 °F 26.6 °F 65% 30.04 in 10.0 mi SW 11.5 mph - N/A   Clear
11:35 AM 37.4 °F 28.9 °F 26.6 °F 65% 30.01 in 10.0 mi SW 13.8 mph - N/A   Clear
11:55 AM 37.4 °F 29.8 °F 26.6 °F 65% 30.00 in 10.0 mi SW 11.5 mph - N/A   Clear
12:15 PM 37.4 °F 29.3 °F 26.6 °F 65% 29.98 in 10.0 mi SW 12.7 mph - N/A   Clear
12:35 PM 37.4 °F 29.3 °F 24.8 °F 60% 29.96 in 10.0 mi SW 12.7 mph - N/A   Clear
12:55 PM 37.4 °F 29.8 °F 23.0 °F 56% 29.94 in 10.0 mi SSW 11.5 mph - N/A   Clear
1:15 PM 37.4 °F 30.3 °F 24.8 °F 60% 29.93 in 10.0 mi SSW 10.4 mph - N/A   Clear
1:35 PM 37.4 °F 29.8 °F 26.6 °F 65% 29.92 in 10.0 mi SSW 11.5 mph - N/A   Clear
1:55 PM 37.4 °F 29.8 °F 26.6 °F 65% 29.91 in 10.0 mi South 11.5 mph - N/A   Clear
2:15 PM 37.4 °F 30.3 °F 26.6 °F 65% 29.90 in 10.0 mi SSW 10.4 mph - N/A   Clear
2:35 PM 37.4 °F 31.4 °F 26.6 °F 65% 29.89 in 10.0 mi SSW 8.1 mph - N/A   Scattered Clouds
2:55 PM 37.4 °F 30.8 °F 26.6 °F 65% 29.88 in 10.0 mi SSW 9.2 mph - N/A   Scattered Clouds
3:15 PM 37.4 °F 30.3 °F 28.4 °F 70% 29.85 in 10.0 mi South 10.4 mph - N/A   Mostly Cloudy
3:35 PM 37.4 °F 28.2 °F 28.4 °F 70% 29.82 in 10.0 mi South 16.1 mph - N/A   Mostly Cloudy
3:55 PM 37.4 °F 28.5 °F 28.4 °F 70% 29.82 in 10.0 mi South 15.0 mph - N/A   Scattered Clouds
4:15 PM 37.4 °F 29.3 °F 28.4 °F 70% 29.82 in 10.0 mi South 12.7 mph - N/A   Scattered Clouds
4:35 PM 37.4 °F 30.3 °F 30.2 °F 75% 29.82 in 10.0 mi South 10.4 mph - N/A   Mostly Cloudy
4:55 PM 37.4 °F 29.8 °F 30.2 °F 75% 29.81 in 10.0 mi SSW 11.5 mph - N/A   Overcast
5:15 PM 37.4 °F 30.8 °F 28.4 °F 70% 29.81 in 10.0 mi SSW 9.2 mph - N/A   Scattered Clouds
5:35 PM 37.4 °F 29.8 °F 28.4 °F 70% 29.80 in 10.0 mi SSW 11.5 mph - N/A   Clear
5:55 PM 37.4 °F 28.2 °F 28.4 °F 70% 29.80 in 10.0 mi SW 16.1 mph - N/A   Clear
6:15 PM 37.4 °F 27.8 °F 28.4 °F 70% 29.81 in 10.0 mi SW 17.3 mph - N/A   Clear
6:35 PM 35.6 °F 26.2 °F 26.6 °F 70% 29.81 in 10.0 mi SW 15.0 mph - N/A   Clear
6:55 PM 35.6 °F 26.2 °F 28.4 °F 75% 29.80 in 10.0 mi SW 15.0 mph - N/A   Clear
7:15 PM 35.6 °F 27.1 °F 28.4 °F 75% 29.80 in 10.0 mi WSW 12.7 mph - N/A   Clear
7:35 PM 33.8 °F 26.4 °F 26.6 °F 75% 29.78 in 10.0 mi WSW 9.2 mph - N/A   Clear
7:55 PM 33.8 °F 24.3 °F 26.6 °F 75% 29.77 in 10.0 mi SW 13.8 mph - N/A   Clear
8:15 PM 33.8 °F 23.9 °F 26.6 °F 75% 29.77 in 10.0 mi SW 15.0 mph - N/A   Clear
8:35 PM 33.8 °F 24.8 °F 28.4 °F 81% 29.76 in 10.0 mi SW 12.7 mph 18.4 mph N/A   Clear
8:55 PM 33.8 °F 24.8 °F 28.4 °F 81% 29.76 in 10.0 mi SW 12.7 mph - N/A   Clear
9:15 PM 35.6 °F 26.2 °F 30.2 °F 81% 29.75 in 10.0 mi SW 15.0 mph - N/A   Clear
9:35 PM 35.6 °F 25.5 °F 30.2 °F 81% 29.75 in 10.0 mi WSW 17.3 mph 23.0 mph N/A   Clear
9:55 PM 35.6 °F 25.9 °F 30.2 °F 81% 29.74 in 10.0 mi SW 16.1 mph - N/A   Clear
10:15 PM 35.6 °F 25.5 °F 30.2 °F 81% 29.74 in 10.0 mi WSW 17.3 mph - N/A   Clear
10:35 PM 37.4 °F 28.5 °F 32.0 °F 81% 29.74 in 10.0 mi West 15.0 mph - N/A   Clear
10:55 PM 44.6 °F 35.7 °F 30.2 °F 57% 29.74 in 10.0 mi West 24.2 mph 27.6 mph N/A   Clear
11:15 PM 46.4 °F 38.7 °F 30.2 °F 53% 29.74 in 10.0 mi West 20.7 mph 25.3 mph N/A   Clear
11:35 PM 41.0 °F 31.1 °F 30.2 °F 65% 29.75 in 10.0 mi West 23.0 mph - N/A   Clear
11:55 PM 42.8 °F 34.3 °F 28.4 °F 57% 29.76 in 10.0 mi West 19.6 mph - N/A   Clear